Location: Bazugues
(43.4465°N, 0.3432°E)
Time: 09:04:37
(UTC+00:00)

SJ 16-02 - Pass Details

Date: 12 January 2026
Orbit: 582 x 594 km, 75.0° (Epoch: 18 February)

Event Time Altitude Azimuth Distance (km) Brightness Sun altitude
Rises 17:36:46 0° 341° (NNW) 2,822 4.7 -9.4°
Reaches altitude 10° 17:39:00 10° 341° (NNW) 1,919 3.9 -9.8°
Maximum altitude 17:43:17 89° 77° (ENE) 595 1.2 -10.5°
Drops below altitude 10° 17:47:33 10° 162° (SSE) 1,912 3.9 -11.3°
Sets 17:49:45 0° 163° (SSE) 2,810 4.8 -11.6°
